This is the latest recevied weather packets stored in our database for station/object K5YNC. If no packets are shown the sender has not sent any weather packets the latest 10 day(s).
| Time | Temp. | Humidity | Pressure | Rain* | Wind** | Luminosity | Snow |
|---|---|---|---|---|---|---|---|
| 1777753064 | 23.89° C | 39% | 1021.9 hPa | 0 mm | - | 776 W/m² | - |
| 1777752759 | 23.33° C | 44% | 1022 hPa | 0 mm | - | 393 W/m² | - |
| 1777752455 | 23.89° C | 42% | 1022.1 hPa | 0 mm | - | 140 W/m² | - |
| 1777752152 | 23.89° C | 44% | 1022.3 hPa | 0 mm | - | 777 W/m² | - |
| 1777751850 | 23.89° C | 43% | 1022.1 hPa | 0 mm | - | 818 W/m² | - |
| 1777751547 | 24.44° C | 42% | 1022.2 hPa | 0 mm | - | 808 W/m² | - |
| 1777751243 | 25° C | 38% | 1022.3 hPa | 0 mm | - | 768 W/m² | - |
| 1777750940 | 24.44° C | 42% | 1022.3 hPa | 0 mm | - | 788 W/m² | - |
| 1777750641 | 23.89° C | 42% | 1022.4 hPa | 0 mm | - | 806 W/m² | - |
| 1777750339 | 23.33° C | 45% | 1022.5 hPa | 0 mm | - | 815 W/m² | - |
| 1777750038 | 23.89° C | 44% | 1022.5 hPa | 0 mm | - | 834 W/m² | - |
| 1777749736 | 23.89° C | 43% | 1022.7 hPa | 0 mm | - | 446 W/m² | - |
| 1777749433 | 23.33° C | 45% | 1022.4 hPa | 0 mm | - | 839 W/m² | - |
| 1777749131 | 22.78° C | 47% | 1022.7 hPa | 0 mm | - | 838 W/m² | - |
| 1777748828 | 23.33° C | 45% | 1022.5 hPa | 0 mm | - | 215 W/m² | - |
| 1777748525 | 23.89° C | 46% | 1022.7 hPa | 0 mm | - | 272 W/m² | - |
| 1777748225 | 23.33° C | 44% | 1022.8 hPa | 0 mm | - | 817 W/m² | - |
| 1777747922 | 23.33° C | 48% | 1022.9 hPa | 0 mm | - | 823 W/m² | - |
| 1777747618 | 22.78° C | 44% | 1022.9 hPa | 0 mm | - | 834 W/m² | - |
| 1777747319 | 23.33° C | 46% | 1023.1 hPa | 0 mm | - | 154 W/m² | - |
| 1777747016 | 23.33° C | 44% | 1023.1 hPa | 0 mm | - | 824 W/m² | - |
| 1777746712 | 23.33° C | 44% | 1023 hPa | 0 mm | - | 811 W/m² | - |
| 1777746407 | 22.78° C | 46% | 1023.1 hPa | 0 mm | - | 811 W/m² | - |
| 1777746102 | 22.78° C | 45% | 1023.1 hPa | 0 mm | - | 816 W/m² | - |
| 1777745801 | 23.33° C | 47% | 1023.2 hPa | 0 mm | - | 809 W/m² | - |
* Rain latest hour (hover to see other rain measurements)
** Current wind speed in m/s (hover to see current wind gust speed)